TimeMST,TemperatureF,Dew PointF,Humidity,Sea Level PressureIn,VisibilityMPH,Wind Direction,Wind SpeedMPH,Gust SpeedMPH,PrecipitationIn,Events,Conditions,WindDirDegrees,DateUTC
12:15 AM,30.2,15.8,55,30.12,10.0,WNW,13.8,24.2,N/A,,Clear,290,2013-01-16 07:15:00
12:35 AM,15.8,3.2,58,30.13,10.0,NE,5.8,-,N/A,,Clear,50,2013-01-16 07:35:00
12:55 AM,24.8,17.6,74,30.13,10.0,NNW,3.5,-,N/A,,Clear,330,2013-01-16 07:55:00
1:15 AM,28.4,15.8,59,30.13,10.0,WNW,6.9,-,N/A,,Clear,290,2013-01-16 08:15:00
1:55 AM,33.8,15.8,48,30.12,10.0,WNW,11.5,-,N/A,,Clear,300,2013-01-16 08:55:00
2:15 AM,30.2,14.0,51,30.13,10.0,NW,6.9,-,N/A,,Clear,320,2013-01-16 09:15:00
2:35 AM,30.2,14.0,51,30.14,10.0,WNW,11.5,19.6,N/A,,Clear,300,2013-01-16 09:35:00
2:55 AM,32.0,15.8,51,30.13,10.0,West,8.1,-,N/A,,Clear,280,2013-01-16 09:55:00
3:35 AM,33.8,15.8,48,30.14,10.0,West,5.8,-,N/A,,Clear,280,2013-01-16 10:35:00
3:55 AM,26.6,14.0,59,30.14,10.0,WNW,8.1,-,N/A,,Clear,290,2013-01-16 10:55:00
4:15 AM,33.8,14.0,44,30.13,10.0,NW,6.9,-,N/A,,Clear,310,2013-01-16 11:15:00
4:35 AM,33.8,15.8,48,30.13,10.0,WNW,11.5,27.6,N/A,,Clear,290,2013-01-16 11:35:00
4:55 AM,35.6,15.8,44,30.13,10.0,WNW,10.4,23.0,N/A,,Clear,290,2013-01-16 11:55:00
5:15 AM,35.6,14.0,41,30.12,10.0,West,13.8,19.6,N/A,,Clear,280,2013-01-16 12:15:00
5:35 AM,30.2,12.2,47,30.13,10.0,NW,6.9,20.7,N/A,,Clear,320,2013-01-16 12:35:00
5:55 AM,19.4,6.8,58,30.14,10.0,NE,5.8,-,N/A,,Clear,50,2013-01-16 12:55:00
6:15 AM,19.4,8.6,63,30.15,10.0,ENE,9.2,-,N/A,,Clear,60,2013-01-16 13:15:00
6:35 AM,19.4,10.4,68,30.16,10.0,NE,4.6,-,N/A,,Clear,50,2013-01-16 13:35:00
6:55 AM,19.4,10.4,68,30.16,10.0,SE,3.5,-,N/A,,Clear,140,2013-01-16 13:55:00
7:15 AM,21.2,12.2,68,30.16,10.0,East,6.9,-,N/A,,Clear,100,2013-01-16 14:15:00
7:35 AM,21.2,8.6,58,30.17,10.0,South,3.5,-,N/A,,Clear,170,2013-01-16 14:35:00
7:55 AM,28.4,14.0,55,30.17,10.0,SSW,4.6,-,N/A,,Clear,200,2013-01-16 14:55:00
8:15 AM,17.6,6.8,63,30.18,10.0,North,3.5,-,N/A,,Clear,10,2013-01-16 15:15:00
8:35 AM,19.4,10.4,68,30.19,10.0,NE,5.8,-,N/A,,Clear,40,2013-01-16 15:35:00
9:15 AM,17.6,10.4,73,30.21,10.0,Calm,Calm,-,N/A,,Clear,0,2013-01-16 16:15:00
9:55 AM,17.6,10.4,73,30.22,10.0,Calm,Calm,-,N/A,,Clear,0,2013-01-16 16:55:00
10:35 AM,19.4,10.4,68,30.23,10.0,North,3.5,-,N/A,,Clear,360,2013-01-16 17:35:00
10:55 AM,17.6,8.6,68,30.23,10.0,NNE,3.5,-,N/A,,Clear,30,2013-01-16 17:55:00
11:15 AM,15.8,8.6,73,30.23,10.0,Calm,Calm,-,N/A,,Clear,0,2013-01-16 18:15:00
11:35 AM,17.6,10.4,73,30.23,10.0,North,4.6,-,N/A,,Clear,350,2013-01-16 18:35:00
11:55 AM,17.6,10.4,73,30.22,10.0,Calm,Calm,-,N/A,,Clear,0,2013-01-16 18:55:00
12:15 PM,19.4,14.0,80,30.21,10.0,Calm,Calm,-,N/A,,Clear,0,2013-01-16 19:15:00
12:35 PM,24.8,15.8,69,30.20,10.0,Calm,Calm,-,N/A,,Clear,0,2013-01-16 19:35:00
12:55 PM,24.8,15.8,69,30.20,10.0,Calm,Calm,-,N/A,,Clear,0,2013-01-16 19:55:00
1:15 PM,26.6,17.6,69,30.19,10.0,NE,4.6,-,N/A,,Clear,50,2013-01-16 20:15:00
1:35 PM,26.6,17.6,69,30.19,10.0,NNE,6.9,-,N/A,,Clear,20,2013-01-16 20:35:00
1:55 PM,23.0,14.0,68,30.19,10.0,East,8.1,-,N/A,,Clear,80,2013-01-16 20:55:00
2:16 PM,23.0,15.8,74,30.19,10.0,ENE,3.5,-,N/A,,Clear,60,2013-01-16 21:16:00
2:35 PM,24.8,14.0,64,30.20,10.0,North,3.5,-,N/A,,Clear,350,2013-01-16 21:35:00
2:55 PM,23.0,15.8,74,30.21,10.0,NNE,5.8,-,N/A,,Clear,30,2013-01-16 21:55:00
3:15 PM,24.8,17.6,74,30.21,10.0,NNE,4.6,-,N/A,,Clear,30,2013-01-16 22:15:00
3:35 PM,23.0,15.8,74,30.21,10.0,North,3.5,-,N/A,,Clear,10,2013-01-16 22:35:00
3:55 PM,21.2,15.8,80,30.21,10.0,NE,3.5,-,N/A,,Clear,40,2013-01-16 22:55:00
4:15 PM,19.4,14.0,80,30.22,10.0,North,5.8,-,N/A,,Clear,10,2013-01-16 23:15:00
4:55 PM,19.4,12.2,74,30.24,10.0,NE,4.6,-,N/A,,Clear,40,2013-01-16 23:55:00
5:15 PM,17.6,12.2,79,30.24,10.0,Calm,Calm,-,N/A,,Clear,0,2013-01-17 00:15:00
5:35 PM,17.6,12.2,79,30.26,10.0,SE,4.6,-,N/A,,Clear,140,2013-01-17 00:35:00
5:56 PM,17.6,10.4,73,30.26,10.0,South,5.8,-,N/A,,Clear,170,2013-01-17 00:56:00
6:15 PM,17.6,12.2,79,30.27,10.0,Calm,Calm,-,N/A,,Clear,0,2013-01-17 01:15:00
6:35 PM,17.6,14.0,86,30.27,10.0,South,4.6,-,N/A,,Clear,190,2013-01-17 01:35:00
6:55 PM,14.0,10.4,86,30.28,10.0,SW,4.6,-,N/A,,Clear,220,2013-01-17 01:55:00
7:15 PM,12.2,8.6,85,30.28,10.0,Calm,Calm,-,N/A,,Clear,0,2013-01-17 02:15:00
7:35 PM,15.8,12.2,86,30.27,10.0,Calm,Calm,-,N/A,,Clear,0,2013-01-17 02:35:00
7:56 PM,19.4,17.6,93,30.27,10.0,Calm,Calm,-,N/A,,Clear,0,2013-01-17 02:56:00
8:15 PM,21.2,17.6,86,30.28,10.0,West,5.8,-,N/A,,Clear,280,2013-01-17 03:15:00
8:35 PM,21.2,14.0,74,30.28,10.0,Calm,Calm,-,N/A,,Clear,0,2013-01-17 03:35:00
8:55 PM,21.2,15.8,80,30.29,10.0,SSW,3.5,-,N/A,,Clear,210,2013-01-17 03:55:00
9:15 PM,21.2,14.0,74,30.29,10.0,Calm,Calm,-,N/A,,Clear,0,2013-01-17 04:15:00
9:35 PM,19.4,10.4,68,30.29,10.0,Calm,Calm,-,N/A,,Clear,0,2013-01-17 04:35:00
9:55 PM,17.6,8.6,68,30.29,10.0,Calm,Calm,-,N/A,,Clear,0,2013-01-17 04:55:00
10:15 PM,17.6,10.4,73,30.29,10.0,Calm,Calm,-,N/A,,Clear,0,2013-01-17 05:15:00
10:35 PM,17.6,12.2,79,30.30,10.0,Calm,Calm,-,N/A,,Clear,0,2013-01-17 05:35:00
10:55 PM,15.8,12.2,86,30.30,10.0,Calm,Calm,-,N/A,,Clear,0,2013-01-17 05:55:00
11:15 PM,15.8,12.2,86,30.30,10.0,Calm,Calm,-,N/A,,Clear,0,2013-01-17 06:15:00
11:35 PM,15.8,10.4,79,30.31,10.0,Calm,Calm,-,N/A,,Clear,0,2013-01-17 06:35:00
11:55 PM,17.6,10.4,73,30.31,10.0,Calm,Calm,-,N/A,,Clear,0,2013-01-17 06:55:00